When you browse on this site, cookies collect data to enhance your experience and personalize the content and advertising you see.
Visit our Privacy Policy to learn more. By continuing to use the site, you agree to this use of cookies and data.
  • In Italy
  • List of Countries
  • For 7 days
  • Water Temperature
  • Satellite Maps
  • Weather Map
  • Weather Widgets
  • user-avatar
    Login

    Hourly Weather Mahilyow

    Today, 23 July, Tuesday

    Time Temperature Precipitation Wind Pressure Humidity
    00:00 +15°C° 0 mm 2 mps 745 mmHg 97%
    01:00 +15°C° 0 mm 2 mps 745 mmHg 97%
    02:00 +14°C° 0 mm 2 mps 745 mmHg 98%
    03:00 +14°C° 0 mm 2 mps 745 mmHg 98%
    04:00 +13°C° 0 mm 3 mps 745 mmHg 98%
    05:00 +13°C° 0 mm 3 mps 744 mmHg 98%
    06:00 +14°C° 0 mm 3 mps 744 mmHg 96%
    07:00 +15°C° 0 mm 4 mps 744 mmHg 94%
    08:00 +17°C° 0 mm 4 mps 744 mmHg 92%
    09:00 +17°C° 0.1 mm 4 mps 745 mmHg 92%
    10:00 +17°C° 0.1 mm 4 mps 745 mmHg 91%
    11:00 +18°C° 0.1 mm 4 mps 745 mmHg 90%
    12:00 +17°C° 0.8 mm 4 mps 745 mmHg 92%
    13:00 +17°C° 0.8 mm 4 mps 744 mmHg 94%
    14:00 +15°C° 0.8 mm 5 mps 744 mmHg 95%
    15:00 +16°C° 0.2 mm 5 mps 744 mmHg 94%
    16:00 +16°C° 0.2 mm 5 mps 744 mmHg 92%
    17:00 +17°C° 0.2 mm 5 mps 744 mmHg 91%
    18:00 +18°C° 0.2 mm 4 mps 744 mmHg 91%
    19:00 +17°C° 0.2 mm 4 mps 744 mmHg 91%
    20:00 +17°C° 0.2 mm 4 mps 744 mmHg 91%
    21:00 +17°C° 0 mm 4 mps 744 mmHg 92%
    22:00 +16°C° 0 mm 3 mps 744 mmHg 93%
    23:00 +16°C° 0 mm 3 mps 744 mmHg 94%

    Tomorrow, 24 July, Wednesday

    Time Temperature Precipitation Wind Pressure Humidity
    00:00 +14°C° 0 mm 3 mps 744 mmHg 95%
    01:00 +14°C° 0 mm 3 mps 744 mmHg 95%
    02:00 +14°C° 0 mm 3 mps 744 mmHg 95%
    03:00 +14°C° 0 mm 3 mps 744 mmHg 95%
    04:00 +14°C° 0 mm 3 mps 744 mmHg 95%
    05:00 +14°C° 0 mm 4 mps 744 mmHg 95%
    06:00 +15°C° 0 mm 4 mps 744 mmHg 90%
    07:00 +18°C° 0 mm 4 mps 745 mmHg 86%
    08:00 +19°C° 0 mm 5 mps 745 mmHg 81%
    09:00 +20°C° 0.1 mm 5 mps 745 mmHg 74%
    10:00 +22°C° 0.1 mm 5 mps 745 mmHg 68%
    11:00 +23°C° 0.1 mm 5 mps 746 mmHg 61%
    12:00 +23°C° 0.1 mm 5 mps 746 mmHg 60%
    13:00 +23°C° 0.1 mm 5 mps 746 mmHg 58%
    14:00 +25°C° 0.1 mm 5 mps 746 mmHg 57%
    15:00 +23°C° 0.1 mm 5 mps 746 mmHg 60%
    16:00 +23°C° 0.1 mm 4 mps 746 mmHg 63%
    17:00 +22°C° 0.1 mm 4 mps 746 mmHg 66%
    18:00 +21°C° 0 mm 4 mps 746 mmHg 71%
    19:00 +20°C° 0 mm 4 mps 746 mmHg 75%
    20:00 +18°C° 0 mm 3 mps 746 mmHg 80%
    21:00 +17°C° 0 mm 3 mps 746 mmHg 82%
    22:00 +16°C° 0 mm 3 mps 746 mmHg 84%
    23:00 +16°C° 0 mm 3 mps 747 mmHg 86%

    Day after tomorrow, 25 July, Thursday

    Time Temperature Precipitation Wind Pressure Humidity
    00:00 +14°C° 0 mm 3 mps 747 mmHg 87%
    01:00 +14°C° 0 mm 3 mps 746 mmHg 88%
    02:00 +13°C° 0 mm 3 mps 746 mmHg 89%
    03:00 +13°C° 0 mm 3 mps 747 mmHg 88%
    04:00 +13°C° 0 mm 3 mps 747 mmHg 87%
    05:00 +13°C° 0 mm 3 mps 747 mmHg 86%
    06:00 +15°C° 0.1 mm 2 mps 747 mmHg 87%
    07:00 +16°C° 0.1 mm 2 mps 747 mmHg 87%
    08:00 +17°C° 0.1 mm 2 mps 747 mmHg 88%
    09:00 +17°C° 0.5 mm 2 mps 747 mmHg 87%
    10:00 +18°C° 0.5 mm 2 mps 746 mmHg 86%
    11:00 +19°C° 0.5 mm 2 mps 746 mmHg 85%
    12:00 +20°C° 0.4 mm 2 mps 746 mmHg 79%
    13:00 +21°C° 0.4 mm 2 mps 746 mmHg 74%
    14:00 +23°C° 0.4 mm 2 mps 746 mmHg 69%
    15:00 +21°C° 1.3 mm 2 mps 745 mmHg 73%
    16:00 +21°C° 1.3 mm 2 mps 745 mmHg 78%
    17:00 +20°C° 1.3 mm 2 mps 745 mmHg 82%
    18:00 +19°C° 0.4 mm 2 mps 745 mmHg 85%
    19:00 +18°C° 0.4 mm 2 mps 745 mmHg 89%
    20:00 +17°C° 0.4 mm 2 mps 745 mmHg 92%
    21:00 +16°C° 0 mm 2 mps 745 mmHg 93%
    22:00 +16°C° 0 mm 2 mps 745 mmHg 95%
    23:00 +15°C° 0 mm 2 mps 745 mmHg 96%

    26 July, Friday

    Time Temperature Precipitation Wind Pressure Humidity
    00:00 +15°C° 0 mm 2 mps 745 mmHg 96%
    01:00 +14°C° 0 mm 2 mps 745 mmHg 96%
    02:00 +14°C° 0 mm 2 mps 745 mmHg 97%
    03:00 +14°C° 0 mm 2 mps 745 mmHg 97%
    04:00 +14°C° 0 mm 2 mps 745 mmHg 97%
    05:00 +14°C° 0 mm 2 mps 745 mmHg 97%
    06:00 +15°C° 0 mm 2 mps 745 mmHg 94%
    07:00 +17°C° 0 mm 3 mps 745 mmHg 92%
    08:00 +18°C° 0 mm 3 mps 745 mmHg 89%
    09:00 +19°C° 0 mm 3 mps 746 mmHg 84%
    10:00 +21°C° 0 mm 4 mps 746 mmHg 79%
    11:00 +22°C° 0 mm 4 mps 746 mmHg 74%
    12:00 +21°C° 0.3 mm 4 mps 746 mmHg 77%
    13:00 +21°C° 0.3 mm 5 mps 746 mmHg 81%
    14:00 +20°C° 0.3 mm 5 mps 746 mmHg 85%
    15:00 +20°C° 0.2 mm 4 mps 745 mmHg 88%
    16:00 +19°C° 0.2 mm 4 mps 745 mmHg 91%
    17:00 +18°C° 0.2 mm 4 mps 745 mmHg 93%
    18:00 +18°C° 0 mm 3 mps 745 mmHg 94%
    19:00 +18°C° 0 mm 2 mps 745 mmHg 94%
    20:00 +18°C° 0 mm 2 mps 745 mmHg 95%
    21:00 +18°C° 0.1 mm 2 mps 745 mmHg 94%
    22:00 +18°C° 0.1 mm 2 mps 745 mmHg 94%
    23:00 +18°C° 0.1 mm 2 mps 745 mmHg 94%

    27 July, Saturday

    Time Temperature Precipitation Wind Pressure Humidity
    00:00 +18°C° 0 mm 3 mps 745 mmHg 94%
    01:00 +18°C° 0 mm 3 mps 745 mmHg 95%
    02:00 +17°C° 0 mm 3 mps 744 mmHg 95%
    03:00 +17°C° 0 mm 3 mps 744 mmHg 96%
    04:00 +17°C° 0 mm 3 mps 744 mmHg 96%
    05:00 +17°C° 0 mm 4 mps 744 mmHg 96%
    06:00 +18°C° 0 mm 4 mps 744 mmHg 93%
    07:00 +19°C° 0 mm 5 mps 744 mmHg 90%
    08:00 +20°C° 0 mm 6 mps 744 mmHg 86%
    09:00 +22°C° 0.1 mm 6 mps 744 mmHg 82%
    10:00 +23°C° 0.1 mm 6 mps 744 mmHg 78%
    11:00 +24°C° 0.1 mm 6 mps 744 mmHg 74%
    12:00 +24°C° 0.4 mm 6 mps 744 mmHg 73%
    13:00 +26°C° 0.4 mm 6 mps 744 mmHg 72%
    14:00 +26°C° 0.4 mm 6 mps 743 mmHg 71%
    15:00 +26°C° 0.3 mm 6 mps 743 mmHg 73%
    16:00 +25°C° 0.3 mm 5 mps 743 mmHg 74%
    17:00 +25°C° 0.3 mm 4 mps 743 mmHg 76%
    18:00 +23°C° 0.3 mm 4 mps 743 mmHg 81%
    19:00 +22°C° 0.3 mm 3 mps 743 mmHg 85%
    20:00 +20°C° 0.3 mm 3 mps 743 mmHg 90%
    21:00 +20°C° 0 mm 3 mps 743 mmHg 92%
    22:00 +19°C° 0 mm 3 mps 743 mmHg 93%
    23:00 +19°C° 0 mm 3 mps 743 mmHg 95%

    28 July, Sunday

    Time Temperature Precipitation Wind Pressure Humidity
    00:00 +18°C° 0 mm 3 mps 743 mmHg 95%
    01:00 +18°C° 0 mm 3 mps 743 mmHg 95%
    02:00 +17°C° 0 mm 3 mps 743 mmHg 95%
    03:00 +17°C° 0 mm 3 mps 743 mmHg 95%
    04:00 +17°C° 0 mm 3 mps 743 mmHg 95%
    05:00 +17°C° 0 mm 3 mps 743 mmHg 95%
    06:00 +19°C° 0 mm 3 mps 743 mmHg 90%
    07:00 +20°C° 0 mm 3 mps 743 mmHg 86%
    08:00 +22°C° 0 mm 3 mps 743 mmHg 81%
    09:00 +23°C° 0.7 mm 4 mps 743 mmHg 80%
    10:00 +23°C° 0.7 mm 4 mps 743 mmHg 79%
    11:00 +25°C° 0.7 mm 5 mps 743 mmHg 78%
    12:00 +25°C° 0.5 mm 5 mps 743 mmHg 77%
    13:00 +25°C° 0.5 mm 5 mps 742 mmHg 76%
    14:00 +25°C° 0.5 mm 5 mps 742 mmHg 75%
    15:00 +25°C° 0.4 mm 5 mps 742 mmHg 76%
    16:00 +23°C° 0.4 mm 5 mps 742 mmHg 77%
    17:00 +22°C° 0.4 mm 5 mps 742 mmHg 78%
    18:00 +20°C° 0 mm 4 mps 743 mmHg 81%
    19:00 +19°C° 0 mm 4 mps 743 mmHg 84%
    20:00 +17°C° 0 mm 4 mps 743 mmHg 87%
    21:00 +14°C° 0 mm 3 mps 743 mmHg 87%
    22:00 +13°C° 0 mm 3 mps 744 mmHg 88%
    23:00 +12°C° 0 mm 3 mps 744 mmHg 89%
    Show more